Time,TemperatureF,DewpointF,PressureIn,WindDirection,WindDirectionDegrees,WindSpeedMPH,WindSpeedGustMPH,Humidity,HourlyPrecipIn,Conditions,Clouds,dailyrainin,SoftwareType,DateUTC
2013-06-02 00:03:00,52.0,-99.9,-100.00,North,-999,21.0,-999.0,0,-99.99,,,-99.99,,2013-06-02 05:03:00,
2013-06-02 00:12:00,52.0,-99.9,-100.00,North,-999,16.0,-999.0,0,-99.99,,,-99.99,,2013-06-02 05:12:00,
2013-06-02 00:23:00,51.0,-99.9,-100.00,North,-999,14.0,-999.0,0,-99.99,,,-99.99,,2013-06-02 05:23:00,
2013-06-02 00:32:00,52.0,-99.9,-100.00,West,259,12.0,-999.0,0,-99.99,,,-99.99,,2013-06-02 05:32:00,
2013-06-02 00:42:00,51.0,-99.9,-100.00,North,-999,13.0,-999.0,0,-99.99,,,-99.99,,2013-06-02 05:42:00,
2013-06-02 00:52:00,51.0,-99.9,-100.00,North,-999,17.0,-999.0,0,-99.99,,,-99.99,,2013-06-02 05:52:00,
2013-06-02 01:02:00,51.0,-99.9,-100.00,North,-999,9.0,-999.0,0,-99.99,,,-99.99,,2013-06-02 06:02:00,
2013-06-02 01:12:00,51.0,-99.9,-100.00,NNW,342,9.0,-999.0,0,-99.99,,,-99.99,,2013-06-02 06:12:00,
2013-06-02 01:22:00,51.0,-99.9,-100.00,North,-999,12.0,-999.0,0,-99.99,,,-99.99,,2013-06-02 06:22:00,
2013-06-02 01:32:00,51.0,-99.9,-100.00,North,-999,14.0,-999.0,0,-99.99,,,-99.99,,2013-06-02 06:32:00,
2013-06-02 01:42:00,51.0,-99.9,-100.00,NNW,341,9.0,-999.0,0,-99.99,,,-99.99,,2013-06-02 06:42:00,
2013-06-02 01:52:00,51.0,-99.9,-100.00,North,-999,14.0,-999.0,0,-99.99,,,-99.99,,2013-06-02 06:52:00,
2013-06-02 02:02:00,51.0,-99.9,-100.00,West,259,8.0,-999.0,0,-99.99,,,-99.99,,2013-06-02 07:02:00,
2013-06-02 02:11:00,51.0,-99.9,-100.00,NNW,339,12.0,-999.0,0,-99.99,,,-99.99,,2013-06-02 07:11:00,
2013-06-02 02:22:00,51.0,-99.9,-100.00,West,259,11.0,-999.0,0,-99.99,,,-99.99,,2013-06-02 07:22:00,
2013-06-02 02:32:00,51.0,-99.9,-100.00,NNW,334,13.0,-999.0,0,-99.99,,,-99.99,,2013-06-02 07:32:00,
2013-06-02 02:42:00,51.0,-99.9,-100.00,North,-999,13.0,-999.0,0,-99.99,,,-99.99,,2013-06-02 07:42:00,
2013-06-02 02:52:00,51.0,-99.9,-100.00,North,-999,17.0,-999.0,0,-99.99,,,-99.99,,2013-06-02 07:52:00,
2013-06-02 03:02:00,51.0,-99.9,-100.00,North,-999,14.0,-999.0,0,-99.99,,,-99.99,,2013-06-02 08:02:00,
2013-06-02 03:12:00,51.0,-99.9,-100.00,NNW,343,13.0,-999.0,0,-99.99,,,-99.99,,2013-06-02 08:12:00,
2013-06-02 03:22:00,51.0,-99.9,-100.00,NNW,343,14.0,-999.0,0,-99.99,,,-99.99,,2013-06-02 08:22:00,
2013-06-02 03:32:00,51.0,-99.9,-100.00,North,-999,14.0,-999.0,0,-99.99,,,-99.99,,2013-06-02 08:32:00,
2013-06-02 03:42:00,50.0,-99.9,-100.00,NNW,343,12.0,-999.0,0,-99.99,,,-99.99,,2013-06-02 08:42:00,
2013-06-02 03:52:00,50.0,-99.9,-100.00,North,-999,11.0,-999.0,0,-99.99,,,-99.99,,2013-06-02 08:52:00,
2013-06-02 04:02:00,50.0,-99.9,-100.00,North,-999,11.0,-999.0,0,-99.99,,,-99.99,,2013-06-02 09:02:00,
2013-06-02 04:11:00,50.0,-99.9,-100.00,NNW,334,10.0,-999.0,0,-99.99,,,-99.99,,2013-06-02 09:11:00,
2013-06-02 04:22:00,50.0,-99.9,-100.00,NNW,340,13.0,-999.0,0,-99.99,,,-99.99,,2013-06-02 09:22:00,
2013-06-02 04:33:00,50.0,-99.9,-100.00,NNW,338,13.0,-999.0,0,-99.99,,,-99.99,,2013-06-02 09:33:00,
2013-06-02 04:43:00,50.0,-99.9,-100.00,NNW,334,14.0,-999.0,0,-99.99,,,-99.99,,2013-06-02 09:43:00,
2013-06-02 04:53:00,50.0,-99.9,-100.00,NNW,330,10.0,-999.0,0,-99.99,,,-99.99,,2013-06-02 09:53:00,
2013-06-02 05:03:00,50.0,-99.9,-100.00,NNW,341,12.0,-999.0,0,-99.99,,,-99.99,,2013-06-02 10:03:00,
2013-06-02 05:13:00,50.0,-99.9,-100.00,NNW,340,7.0,-999.0,0,-99.99,,,-99.99,,2013-06-02 10:13:00,
2013-06-02 05:23:00,50.0,-99.9,-100.00,NNW,343,9.0,-999.0,0,-99.99,,,-99.99,,2013-06-02 10:23:00,
2013-06-02 05:33:00,50.0,-99.9,-100.00,NNW,343,10.0,-999.0,0,-99.99,,,-99.99,,2013-06-02 10:33:00,
2013-06-02 05:42:00,50.0,-99.9,-100.00,North,-999,9.0,-999.0,0,-99.99,,,-99.99,,2013-06-02 10:42:00,
2013-06-02 05:53:00,50.0,-99.9,-100.00,North,-999,11.0,-999.0,0,-99.99,,,-99.99,,2013-06-02 10:53:00,
2013-06-02 06:02:00,50.0,-99.9,-100.00,North,-999,7.0,-999.0,0,-99.99,,,-99.99,,2013-06-02 11:02:00,
2013-06-02 06:12:00,49.0,-99.9,-100.00,North,-999,11.0,-999.0,0,-99.99,,,-99.99,,2013-06-02 11:12:00,
2013-06-02 06:22:00,49.0,-99.9,-100.00,NNW,343,9.0,-999.0,0,-99.99,,,-99.99,,2013-06-02 11:22:00,
2013-06-02 06:32:00,48.0,-99.9,-100.00,NNW,336,9.0,-999.0,0,-99.99,,,-99.99,,2013-06-02 11:32:00,
2013-06-02 06:42:00,48.0,-99.9,-100.00,West,265,7.0,-999.0,0,-99.99,,,-99.99,,2013-06-02 11:42:00,
2013-06-02 06:52:00,48.0,-99.9,-100.00,West,260,12.0,-999.0,0,-99.99,,,-99.99,,2013-06-02 11:52:00,
2013-06-02 07:02:00,48.0,-99.9,-100.00,North,-999,10.0,-999.0,0,-99.99,,,-99.99,,2013-06-02 12:02:00,
2013-06-02 07:12:00,48.0,-99.9,-100.00,North,-999,7.0,-999.0,0,-99.99,,,-99.99,,2013-06-02 12:12:00,
2013-06-02 07:22:00,48.0,-99.9,-100.00,NNW,344,10.0,-999.0,0,-99.99,,,-99.99,,2013-06-02 12:22:00,
2013-06-02 07:32:00,49.0,-99.9,-100.00,NNW,343,12.0,-999.0,0,-99.99,,,-99.99,,2013-06-02 12:32:00,
2013-06-02 07:42:00,49.0,-99.9,-100.00,North,-999,13.0,-999.0,0,-99.99,,,-99.99,,2013-06-02 12:42:00,
2013-06-02 07:53:00,50.0,-99.9,-100.00,WSW,241,12.0,-999.0,0,-99.99,,,-99.99,,2013-06-02 12:53:00,
2013-06-02 08:01:00,50.0,-99.9,-100.00,NNW,343,13.0,-999.0,0,-99.99,,,-99.99,,2013-06-02 13:01:00,
2013-06-02 08:12:00,50.0,-99.9,-100.00,North,5,17.0,-999.0,0,-99.99,,,-99.99,,2013-06-02 13:12:00,
2013-06-02 08:22:00,50.0,-99.9,-100.00,North,10,15.0,-999.0,0,-99.99,,,-99.99,,2013-06-02 13:22:00,
2013-06-02 08:32:00,51.0,-99.9,-100.00,North,-999,14.0,-999.0,0,-99.99,,,-99.99,,2013-06-02 13:32:00,
2013-06-02 08:42:00,52.0,-99.9,-100.00,NNE,15,15.0,-999.0,0,-99.99,,,-99.99,,2013-06-02 13:42:00,
2013-06-02 08:52:00,51.0,-99.9,-100.00,East,90,16.0,-999.0,0,-99.99,,,-99.99,,2013-06-02 13:52:00,
2013-06-02 09:02:00,52.0,-99.9,-100.00,NNE,21,14.0,-999.0,0,-99.99,,,-99.99,,2013-06-02 14:02:00,
2013-06-02 09:11:00,53.0,-99.9,-100.00,North,4,14.0,-999.0,0,-99.99,,,-99.99,,2013-06-02 14:11:00,
2013-06-02 09:22:00,53.0,-99.9,-100.00,North,8,15.0,-999.0,0,-99.99,,,-99.99,,2013-06-02 14:22:00,
2013-06-02 09:32:00,53.0,-99.9,-100.00,North,3,17.0,-999.0,0,-99.99,,,-99.99,,2013-06-02 14:32:00,
2013-06-02 09:42:00,53.0,-99.9,-100.00,North,-999,12.0,-999.0,0,-99.99,,,-99.99,,2013-06-02 14:42:00,
2013-06-02 09:52:00,54.0,-99.9,-100.00,SE,138,16.0,-999.0,0,-99.99,,,-99.99,,2013-06-02 14:52:00,
2013-06-02 10:01:00,54.0,-99.9,-100.00,NNW,343,15.0,-999.0,0,-99.99,,,-99.99,,2013-06-02 15:01:00,
2013-06-02 10:11:00,54.0,-99.9,-100.00,NNE,23,13.0,-999.0,0,-99.99,,,-99.99,,2013-06-02 15:11:00,
2013-06-02 10:22:00,54.0,-99.9,-100.00,NE,39,14.0,-999.0,0,-99.99,,,-99.99,,2013-06-02 15:22:00,
2013-06-02 10:33:00,54.0,-99.9,-100.00,NNE,12,13.0,-999.0,0,-99.99,,,-99.99,,2013-06-02 15:33:00,
2013-06-02 10:43:00,55.0,-99.9,-100.00,NNE,21,6.0,-999.0,0,-99.99,,,-99.99,,2013-06-02 15:43:00,
2013-06-02 10:53:00,55.0,-99.9,-100.00,East,97,7.0,-999.0,0,-99.99,,,-99.99,,2013-06-02 15:53:00,
2013-06-02 11:04:00,56.0,-99.9,-100.00,North,-999,7.0,-999.0,0,-99.99,,,-99.99,,2013-06-02 16:04:00,
2013-06-02 11:13:00,56.0,-99.9,-100.00,NNE,26,7.0,-999.0,0,-99.99,,,-99.99,,2013-06-02 16:13:00,
2013-06-02 11:23:00,56.0,-99.9,-100.00,North,6,13.0,-999.0,0,-99.99,,,-99.99,,2013-06-02 16:23:00,
2013-06-02 11:33:00,57.0,-99.9,-100.00,NNE,18,12.0,-999.0,0,-99.99,,,-99.99,,2013-06-02 16:33:00,
2013-06-02 11:42:00,58.0,-99.9,-100.00,NE,53,7.0,-999.0,0,-99.99,,,-99.99,,2013-06-02 16:42:00,
2013-06-02 11:53:00,58.0,-99.9,-100.00,NNE,20,11.0,-999.0,0,-99.99,,,-99.99,,2013-06-02 16:53:00,
2013-06-02 12:02:00,58.0,-99.9,-100.00,North,-999,9.0,-999.0,0,-99.99,,,-99.99,,2013-06-02 17:02:00,
2013-06-02 12:12:00,58.0,-99.9,-100.00,NNE,29,4.0,-999.0,0,-99.99,,,-99.99,,2013-06-02 17:12:00,
2013-06-02 12:23:00,59.0,-99.9,-100.00,NNE,13,3.0,-999.0,0,-99.99,,,-99.99,,2013-06-02 17:23:00,
2013-06-02 12:33:00,58.0,-99.9,-100.00,NNE,16,3.0,-999.0,0,-99.99,,,-99.99,,2013-06-02 17:33:00,
2013-06-02 12:42:00,60.0,-99.9,-100.00,NE,46,14.0,-999.0,0,-99.99,,,-99.99,,2013-06-02 17:42:00,
2013-06-02 12:52:00,61.0,-99.9,-100.00,NNE,14,6.0,-999.0,0,-99.99,,,-99.99,,2013-06-02 17:52:00,
2013-06-02 13:02:00,61.0,-99.9,-100.00,NE,37,5.0,-999.0,0,-99.99,,,-99.99,,2013-06-02 18:02:00,
2013-06-02 13:12:00,61.0,-99.9,-100.00,NE,46,6.0,-999.0,0,-99.99,,,-99.99,,2013-06-02 18:12:00,
2013-06-02 13:22:00,61.0,-99.9,-100.00,NNE,17,10.0,-999.0,0,-99.99,,,-99.99,,2013-06-02 18:22:00,
2013-06-02 13:32:00,62.0,-99.9,-100.00,South,188,4.0,-999.0,0,-99.99,,,-99.99,,2013-06-02 18:32:00,
2013-06-02 13:42:00,61.0,-99.9,-100.00,NW,315,0.0,-999.0,0,-99.99,,,-99.99,,2013-06-02 18:42:00,
2013-06-02 13:52:00,63.0,-99.9,-100.00,WNW,295,3.0,-999.0,0,-99.99,,,-99.99,,2013-06-02 18:52:00,
2013-06-02 14:02:00,62.0,-99.9,-100.00,NE,37,11.0,-999.0,0,-99.99,,,-99.99,,2013-06-02 19:02:00,
2013-06-02 14:11:00,63.0,-99.9,-100.00,NNE,15,9.0,-999.0,0,-99.99,,,-99.99,,2013-06-02 19:11:00,
2013-06-02 14:22:00,63.0,-99.9,-100.00,East,96,4.0,-999.0,0,-99.99,,,-99.99,,2013-06-02 19:22:00,
2013-06-02 14:32:00,63.0,-99.9,-100.00,NW,321,5.0,-999.0,0,-99.99,,,-99.99,,2013-06-02 19:32:00,
2013-06-02 14:42:00,64.0,-99.9,-100.00,NNW,343,3.0,-999.0,0,-99.99,,,-99.99,,2013-06-02 19:42:00,
2013-06-02 14:52:00,63.0,-99.9,-100.00,NNW,339,4.0,-999.0,0,-99.99,,,-99.99,,2013-06-02 19:52:00,
2013-06-02 15:02:00,65.0,-99.9,-100.00,NNW,330,2.0,-999.0,0,-99.99,,,-99.99,,2013-06-02 20:02:00,
2013-06-02 15:11:00,65.0,-99.9,-100.00,WNW,292,2.0,-999.0,0,-99.99,,,-99.99,,2013-06-02 20:11:00,
2013-06-02 15:22:00,65.0,-99.9,-100.00,North,0,0.0,-999.0,0,-99.99,,,-99.99,,2013-06-02 20:22:00,
2013-06-02 15:32:00,65.0,-99.9,-100.00,NNW,334,7.0,-999.0,0,-99.99,,,-99.99,,2013-06-02 20:32:00,
2013-06-02 15:42:00,65.0,-99.9,-100.00,SSE,165,6.0,-999.0,0,-99.99,,,-99.99,,2013-06-02 20:42:00,
2013-06-02 15:52:00,65.0,-99.9,-100.00,NNE,22,8.0,-999.0,0,-99.99,,,-99.99,,2013-06-02 20:52:00,
2013-06-02 16:02:00,67.0,-99.9,-100.00,ESE,107,7.0,-999.0,0,-99.99,,,-99.99,,2013-06-02 21:02:00,
2013-06-02 16:12:00,66.0,-99.9,-100.00,SW,226,2.0,-999.0,0,-99.99,,,-99.99,,2013-06-02 21:12:00,
2013-06-02 16:22:00,67.0,-99.9,-100.00,South,180,7.0,-999.0,0,-99.99,,,-99.99,,2013-06-02 21:22:00,
2013-06-02 16:33:00,66.0,-99.9,-100.00,West,277,3.0,-999.0,0,-99.99,,,-99.99,,2013-06-02 21:33:00,
2013-06-02 16:43:00,66.0,-99.9,-100.00,WNW,289,3.0,-999.0,0,-99.99,,,-99.99,,2013-06-02 21:43:00,
2013-06-02 16:53:00,66.0,-99.9,-100.00,NE,36,3.0,-999.0,0,-99.99,,,-99.99,,2013-06-02 21:53:00,
2013-06-02 17:03:00,66.0,-99.9,-100.00,SSW,209,4.0,-999.0,0,-99.99,,,-99.99,,2013-06-02 22:03:00,
2013-06-02 17:13:00,68.0,-99.9,-100.00,SW,222,2.0,-999.0,0,-99.99,,,-99.99,,2013-06-02 22:13:00,
2013-06-02 17:23:00,68.0,-99.9,-100.00,West,265,2.0,-999.0,0,-99.99,,,-99.99,,2013-06-02 22:23:00,
2013-06-02 17:33:00,67.0,-99.9,-100.00,SE,135,6.0,-999.0,0,-99.99,,,-99.99,,2013-06-02 22:33:00,
2013-06-02 17:42:00,67.0,-99.9,-100.00,SSW,200,6.0,-999.0,0,-99.99,,,-99.99,,2013-06-02 22:42:00,
2013-06-02 17:53:00,68.0,-99.9,-100.00,SSW,210,4.0,-999.0,0,-99.99,,,-99.99,,2013-06-02 22:53:00,
2013-06-02 18:03:00,68.0,-99.9,-100.00,East,87,5.0,-999.0,0,-99.99,,,-99.99,,2013-06-02 23:03:00,
2013-06-02 18:12:00,68.0,-99.9,-100.00,East,87,6.0,-999.0,0,-99.99,,,-99.99,,2013-06-02 23:12:00,
2013-06-02 18:22:00,68.0,-99.9,-100.00,ESE,113,7.0,-999.0,0,-99.99,,,-99.99,,2013-06-02 23:22:00,
2013-06-02 18:32:00,69.0,-99.9,-100.00,NNE,33,1.0,-999.0,0,-99.99,,,-99.99,,2013-06-02 23:32:00,
2013-06-02 18:43:00,68.0,-99.9,-100.00,SE,133,4.0,-999.0,0,-99.99,,,-99.99,,2013-06-02 23:43:00,
2013-06-02 18:53:00,70.0,-99.9,-100.00,North,0,0.0,-999.0,0,-99.99,,,-99.99,,2013-06-02 23:53:00,
2013-06-02 19:02:00,67.0,-99.9,-100.00,SSW,199,6.0,-999.0,0,-99.99,,,-99.99,,2013-06-03 00:02:00,
2013-06-02 19:12:00,68.0,-99.9,-100.00,SSE,162,7.0,-999.0,0,-99.99,,,-99.99,,2013-06-03 00:12:00,
2013-06-02 19:22:00,69.0,-99.9,-100.00,SE,125,7.0,-999.0,0,-99.99,,,-99.99,,2013-06-03 00:22:00,
2013-06-02 19:32:00,69.0,-99.9,-100.00,SE,125,7.0,-999.0,0,-99.99,,,-99.99,,2013-06-03 00:32:00,
2013-06-02 19:42:00,68.0,-99.9,-100.00,SSE,156,2.0,-999.0,0,-99.99,,,-99.99,,2013-06-03 00:42:00,
2013-06-02 19:52:00,69.0,-99.9,-100.00,ESE,107,1.0,-999.0,0,-99.99,,,-99.99,,2013-06-03 00:52:00,
2013-06-02 20:01:00,68.0,-99.9,-100.00,SE,129,5.0,-999.0,0,-99.99,,,-99.99,,2013-06-03 01:01:00,
2013-06-02 20:11:00,68.0,-99.9,-100.00,SSW,194,2.0,-999.0,0,-99.99,,,-99.99,,2013-06-03 01:11:00,
2013-06-02 20:22:00,67.0,-99.9,-100.00,South,179,3.0,-999.0,0,-99.99,,,-99.99,,2013-06-03 01:22:00,
2013-06-02 20:32:00,67.0,-99.9,-100.00,SSW,192,3.0,-999.0,0,-99.99,,,-99.99,,2013-06-03 01:32:00,
2013-06-02 20:42:00,67.0,-99.9,-100.00,SW,234,2.0,-999.0,0,-99.99,,,-99.99,,2013-06-03 01:42:00,
2013-06-02 20:52:00,69.0,-99.9,-100.00,North,0,0.0,-999.0,0,-99.99,,,-99.99,,2013-06-03 01:52:00,
2013-06-02 21:02:00,68.0,-99.9,-100.00,South,191,1.0,-999.0,0,-99.99,,,-99.99,,2013-06-03 02:02:00,
2013-06-02 21:12:00,66.0,-99.9,-100.00,South,183,3.0,-999.0,0,-99.99,,,-99.99,,2013-06-03 02:12:00,
2013-06-02 21:22:00,65.0,-99.9,-100.00,SSW,205,7.0,-999.0,0,-99.99,,,-99.99,,2013-06-03 02:22:00,
2013-06-02 21:32:00,63.0,-99.9,-100.00,SSW,204,5.0,-999.0,0,-99.99,,,-99.99,,2013-06-03 02:32:00,
2013-06-02 21:42:00,63.0,-99.9,-100.00,SW,227,6.0,-999.0,0,-99.99,,,-99.99,,2013-06-03 02:42:00,
2013-06-02 21:52:00,63.0,-99.9,-100.00,SSW,212,3.0,-999.0,0,-99.99,,,-99.99,,2013-06-03 02:52:00,
2013-06-02 22:02:00,63.0,-99.9,-100.00,SW,217,3.0,-999.0,0,-99.99,,,-99.99,,2013-06-03 03:02:00,
2013-06-02 22:12:00,63.0,-99.9,-100.00,WSW,246,3.0,-999.0,0,-99.99,,,-99.99,,2013-06-03 03:12:00,
2013-06-02 22:22:00,62.0,-99.9,-100.00,SW,224,5.0,-999.0,0,-99.99,,,-99.99,,2013-06-03 03:22:00,
2013-06-02 22:33:00,62.0,-99.9,-100.00,SW,236,3.0,-999.0,0,-99.99,,,-99.99,,2013-06-03 03:33:00,
2013-06-02 22:43:00,62.0,-99.9,-100.00,West,280,4.0,-999.0,0,-99.99,,,-99.99,,2013-06-03 03:43:00,
2013-06-02 22:53:00,62.0,-99.9,-100.00,West,277,4.0,-999.0,0,-99.99,,,-99.99,,2013-06-03 03:53:00,
2013-06-02 23:03:00,62.0,-99.9,-100.00,WSW,243,3.0,-999.0,0,-99.99,,,-99.99,,2013-06-03 04:03:00,
2013-06-02 23:13:00,61.0,-99.9,-100.00,West,261,1.0,-999.0,0,-99.99,,,-99.99,,2013-06-03 04:13:00,
2013-06-02 23:23:00,59.0,-99.9,-100.00,WNW,290,1.0,-999.0,0,-99.99,,,-99.99,,2013-06-03 04:23:00,
2013-06-02 23:33:00,60.0,-99.9,-100.00,WNW,294,4.0,-999.0,0,-99.99,,,-99.99,,2013-06-03 04:33:00,
2013-06-02 23:42:00,60.0,-99.9,-100.00,NW,311,2.0,-999.0,0,-99.99,,,-99.99,,2013-06-03 04:42:00,
2013-06-02 23:53:00,59.0,-99.9,-100.00,West,272,2.0,-999.0,0,-99.99,,,-99.99,,2013-06-03 04:53:00,